2024-149BK

Last updated on Mon Sep 16 2024 00:02:03 GMT+0000 (Coordinated Universal Time)

1 60525U 24149BK 24258.87695079 .00020428 00000+0 95197-3 0 9999 2 60525 97.4359 334.0175 0009440 47.9523 312.2514 15.19880547 4412
UTC large
Height (km)
Speed (km/s)
/
Latitude / Longitude
Inclination (degrees)
Orbital Period (minutes)
Azimuth
Elevation
Range (km)
Doppler Factor

Next 0 passes for location: London (51.5072 / 0.1276)

Sorry there are no passes over London.